Satellite: HRBE Catalog number: 37855 Epoch time: 13339.63743175 Element set: 656 Inclination: 101.7065 deg RA of node: 273.7006 deg Eccentricity: 0.0228369 Arg of perigee: 254.0492 deg Mean anomaly: 232.4951 deg Mean motion: 14.86227693 rev/day Decay rate: 7.880e-05 rev/day^2 Epoch rev: 11389 Checksum: 328
Satellite: RS-39 Catalog number: 38051 Epoch time: 13339.52568853 Element set: 36 Inclination: 051.6337 deg RA of node: 100.3648 deg Eccentricity: 0.0009358 Arg of perigee: 171.9229 deg Mean anomaly: 284.9850 deg Mean motion: 15.39048828 rev/day Decay rate: 3.3740e-04 rev/day^2 Epoch rev: 10410 Checksum: 317
Satellite: E-STAR Catalog number: 38079 Epoch time: 13339.48760120 Element set: 653 Inclination: 069.4685 deg RA of node: 125.8578 deg Eccentricity: 0.0534271 Arg of perigee: 267.2560 deg Mean anomaly: 147.6679 deg Mean motion: 14.67211737 rev/day Decay rate: 6.4049e-04 rev/day^2 Epoch rev: 9467 Checksum: 348
Satellite: GOLIAT Catalog number: 38085 Epoch time: 13339.50714264 Element set: 599 Inclination: 069.4690 deg RA of node: 129.6167 deg Eccentricity: 0.0547356 Arg of perigee: 269.0570 deg Mean anomaly: 084.7810 deg Mean motion: 14.64158234 rev/day Decay rate: 5.9152e-04 rev/day^2 Epoch rev: 9457 Checksum: 340
Satellite: HORYU-2 Catalog number: 38340 Epoch time: 13339.09066206 Element set: 688 Inclination: 098.2370 deg RA of node: 288.4562 deg Eccentricity: 0.0013631 Arg of perigee: 070.5972 deg Mean anomaly: 289.6709 deg Mean motion: 14.71473824 rev/day Decay rate: 1.980e-05 rev/day^2 Epoch rev: 8324 Checksum: 324
Satellite: RS-40 Catalog number: 38736 Epoch time: 13338.80910084 Element set: 442 Inclination: 082.4812 deg RA of node: 048.7441 deg Eccentricity: 0.0020337 Arg of perigee: 315.7338 deg Mean anomaly: 044.2122 deg Mean motion: 12.42874248 rev/day Decay rate: 1.0e-07 rev/day^2 Epoch rev: 6144 Checksum: 271
Satellite: PROITERES Catalog number: 38756 Epoch time: 13339.61701302 Element set: 364 Inclination: 098.2424 deg RA of node: 059.7114 deg Eccentricity: 0.0011368 Arg of perigee: 282.1590 deg Mean anomaly: 077.8359 deg Mean motion: 14.74482905 rev/day Decay rate: 8.39e-06 rev/day^2 Epoch rev: 6665 Checksum: 318
Satellite: RAIKO Catalog number: 38852 Epoch time: 13218.07382584 Element set: 340 Inclination: 051.6160 deg RA of node: 184.0336 deg Eccentricity: 0.0004489 Arg of perigee: 261.9162 deg Mean anomaly: 100.6538 deg Mean motion: 16.48474690 rev/day Decay rate: 2.4681979e-01 rev/day^2 Epoch rev: 4784 Checksum: 326
Satellite: BEESAT-3 Catalog number: 39134 Epoch time: 13339.51198898 Element set: 440 Inclination: 064.8766 deg RA of node: 029.9919 deg Eccentricity: 0.0008467 Arg of perigee: 332.5446 deg Mean anomaly: 027.5224 deg Mean motion: 15.01928286 rev/day Decay rate: 5.635e-05 rev/day^2 Epoch rev: 3454 Checksum: 335
Satellite: BEESAT-2 Catalog number: 39136 Epoch time: 13339.52304813 Element set: 430 Inclination: 064.8754 deg RA of node: 030.0403 deg Eccentricity: 0.0007945 Arg of perigee: 330.9036 deg Mean anomaly: 029.1638 deg Mean motion: 15.01725152 rev/day Decay rate: 4.923e-05 rev/day^2 Epoch rev: 3454 Checksum: 270
Satellite: ORS OBJ A Catalog number: 39380 Epoch time: 13339.92243614 Element set: 33 Inclination: 040.5074 deg RA of node: 157.7689 deg Eccentricity: 0.0002817 Arg of perigee: 063.9487 deg Mean anomaly: 296.1524 deg Mean motion: 15.21388864 rev/day Decay rate: 1.0058e-04 rev/day^2 Epoch rev: 241 Checksum: 300
Satellite: ORS OBJ B Catalog number: 39381 Epoch time: 13339.00669528 Element set: 16 Inclination: 040.5158 deg RA of node: 163.1514 deg Eccentricity: 0.0003646 Arg of perigee: 026.9630 deg Mean anomaly: 333.1501 deg Mean motion: 15.20948822 rev/day Decay rate: 3.656e-05 rev/day^2 Epoch rev: 227 Checksum: 271
Satellite: ORS OBJ C Catalog number: 39382 Epoch time: 13339.92149165 Element set: 26 Inclination: 040.5056 deg RA of node: 157.7620 deg Eccentricity: 0.0000625 Arg of perigee: 089.1778 deg Mean anomaly: 270.9181 deg Mean motion: 15.21746598 rev/day Decay rate: 2.8615e-04 rev/day^2 Epoch rev: 240 Checksum: 301
Satellite: ORS OBJ D Catalog number: 39383 Epoch time: 13338.87324577 Element set: 20 Inclination: 040.5034 deg RA of node: 163.8776 deg Eccentricity: 0.0001846 Arg of perigee: 076.9345 deg Mean anomaly: 283.1924 deg Mean motion: 15.21262595 rev/day Decay rate: 1.0649e-04 rev/day^2 Epoch rev: 225 Checksum: 299
Satellite: TECHEDST3 Catalog number: 39415 Epoch time: 13339.81508278 Element set: 38 Inclination: 051.6473 deg RA of node: 337.6310 deg Eccentricity: 0.0003147 Arg of perigee: 058.0621 deg Mean anomaly: 302.1189 deg Mean motion: 15.56167176 rev/day Decay rate: 2.23729e-03 rev/day^2 Epoch rev: 240 Checksum: 286
Satellite: DNEPR E Catalog number: 39420 Epoch time: 13339.46992474 Element set: 21 Inclination: 097.7869 deg RA of node: 051.2576 deg Eccentricity: 0.0144348 Arg of perigee: 145.3571 deg Mean anomaly: 215.7174 deg Mean motion: 14.59309911 rev/day Decay rate: 1.658e-05 rev/day^2 Epoch rev: 205 Checksum: 311
Satellite: DNEPR J Catalog number: 39424 Epoch time: 13339.71119396 Element set: 14 Inclination: 097.7932 deg RA of node: 051.7136 deg Eccentricity: 0.0097838 Arg of perigee: 146.1800 deg Mean anomaly: 214.6201 deg Mean motion: 14.69604560 rev/day Decay rate: 1.553e-05 rev/day^2 Epoch rev: 27949 Checksum: 308
Satellite: DNEPR L Catalog number: 39426 Epoch time: 13339.66769703 Element set: 12 Inclination: 097.7914 deg RA of node: 051.6176 deg Eccentricity: 0.0109431 Arg of perigee: 145.7936 deg Mean anomaly: 215.0889 deg Mean motion: 14.67083644 rev/day Decay rate: 1.627e-05 rev/day^2 Epoch rev: 208 Checksum: 316
Satellite: TRITON-1 Catalog number: 39427 Epoch time: 13339.69219086 Element set: 13 Inclination: 097.7895 deg RA of node: 051.5844 deg Eccentricity: 0.0120708 Arg of perigee: 145.2849 deg Mean anomaly: 215.6813 deg Mean motion: 14.64591648 rev/day Decay rate: 1.746e-05 rev/day^2 Epoch rev: 206 Checksum: 322
Satellite: DELFIN3XT Catalog number: 39428 Epoch time: 13339.71771154 Element set: 14 Inclination: 097.7876 deg RA of node: 051.5464 deg Eccentricity: 0.0132359 Arg of perigee: 144.9102 deg Mean anomaly: 216.1412 deg Mean motion: 14.62012443 rev/day Decay rate: 2.958e-05 rev/day^2 Epoch rev: 210 Checksum: 278
Satellite: GOMX-1 Catalog number: 39430 Epoch time: 13339.70780156 Element set: 20 Inclination: 097.7841 deg RA of node: 051.4061 deg Eccentricity: 0.0159008 Arg of perigee: 144.5724 deg Mean anomaly: 216.6665 deg Mean motion: 14.56050950 rev/day Decay rate: 1.755e-05 rev/day^2 Epoch rev: 216 Checksum: 281
Satellite: $50SAT Catalog number: 39436 Epoch time: 13338.49533829 Element set: 8 Inclination: 097.8022 deg RA of node: 050.8466 deg Eccentricity: 0.0031976 Arg of perigee: 168.3922 deg Mean anomaly: 191.8227 deg Mean motion: 14.83817507 rev/day Decay rate: 1.1209e-04 rev/day^2 Epoch rev: 194 Checksum: 321
/EX